This demonstration page uses our WeatherBlox Daily Observations layout. Learn more.

Left ArrowRight Arrow

Hourly Observations for February 6, 2021

Temp ( °F °C ) Dew Point ( °F °C ) Humidity (%) Winds ( mph kmh ) Pressure ( in mb ) Visibility ( mi km ) Precip ( " mm )
12:15 am 00:15 Cloudy with Light Snow 23 -5 21 -6.1 92 92 E 8 13 30.01 1016 2 3 N/A
12:35 am 00:35 Cloudy with Light Snow 23 -5 21 -6.3 91 91 E 10 17 30.01 1016 2 3 N/A
12:55 am 00:55 Cloudy with Light Snow 23 -5 21 -6.2 91 91 E 10 17 30.01 1016 2 3 N/A
1:15 am 01:15 Cloudy with Light Snow 23 -5.2 20 -6.5 91 91 E 9 15 30.02 1017 2 2 N/A
1:35 am 01:35 Cloudy with Light Snow 23 -5.2 20 -6.5 91 91 E 8 13 30.02 1017 2 2 N/A
1:55 am 01:55 Cloudy with Light Snow 22 -5.3 20 -6.5 91 91 E 9 15 30.04 1017 2 3 N/A
2:15 am 02:15 Cloudy with Light Snow 22 -5.5 20 -6.5 93 93 E 8 13 30.04 1017 1 2 0.01 0.25
2:35 am 02:35 Cloudy with Snow 22 -5.5 20 -6.5 93 93 E 8 13 30.05 1018 1 2 0.01 0.25
2:55 am 02:55 Cloudy with Snow 22 -5.5 20 -6.5 93 93 E 6 9 30.05 1018 1 2 0.02 0.51
3:15 am 03:15 Cloudy with Snow 22 -5.6 20 -6.6 93 93 E 9 15 30.05 1018 1 2 N/A
3:35 am 03:35 Cloudy with Snow 22 -5.7 20 -6.7 93 93 E 7 11 30.05 1018 1 2 N/A
3:55 am 03:55 Cloudy with Light Snow 21 -6 19 -7 93 93 E 8 13 30.05 1018 1 2 0.01 0.25
4:15 am 04:15 Cloudy with Snow 21 -6 19 -7.1 92 92 E 8 13 30.05 1018 1 2 N/A
4:35 am 04:35 Cloudy with Light Snow 21 -6.1 19 -7.2 92 92 E 9 15 30.05 1018 1 2 N/A
4:55 am 04:55 Cloudy with Light Snow 21 -6.2 19 -7.3 92 92 NE 8 13 30.09 1019 2 3 N/A
5:15 am 05:15 Cloudy with Snow 21 -6.3 19 -7.5 91 91 ENE 10 17 30.10 1019 1 2 0.01 0.25
5:35 am 05:35 Cloudy with Light Snow 21 -6.3 19 -7.5 91 91 E 9 15 30.10 1019 1 2 0.01 0.25
5:55 am 05:55 Cloudy with Light Snow 21 -6.3 19 -7.5 91 91 NE 9 15 30.13 1020 3 5 0.01 0.25
6:15 am 06:15 Cloudy with Light Snow 20 -6.4 19 -7.5 92 92 NE 10 17 30.14 1021 2 3 N/A
6:35 am 06:35 Cloudy with Snow 20 -6.5 18 -7.6 92 92 NE 14 22 30.15 1021 1 2 0.01 0.25
6:55 am 06:55 Cloudy with Snow 20 -6.7 18 -8 91 91 NNE 16 26 30.18 1022 1 2 0.01 0.25
7:15 am 07:15 Cloudy with Snow 19 -7.5 16 -8.9 90 90 NNE 24 39 30.19 1022 2 2 N/A
7:35 am 07:35 Cloudy with Light Snow 15 -9.5 12 -11 89 89 NNE 18 30 30.23 1024 1 2 N/A
7:55 am 07:55 Windy with Snow Likely 14 -10.2 11 -11.9 88 88 NNE 24 39 30.26 1025 2 2 N/A
8:15 am 08:15 Windy with Snow Likely 13 -10.5 10 -12.2 87 87 NNE 20 31 30.28 1025 2 3 N/A
8:35 am 08:35 Windy with Snow Likely 13 -10.7 9 -12.7 85 85 NNE 23 37 30.30 1026 3 4 N/A
8:55 am 08:55 Cloudy with Light Snow 12 -11 8 -13.1 85 85 NNE 17 28 30.30 1026 3 5 N/A
9:15 am 09:15 Cloudy with Light Snow 12 -11 8 -13.2 84 84 NNE 17 28 30.31 1026 3 4 N/A
9:35 am 09:35 Windy with Snow Likely 12 -11 8 -13.2 84 84 NNE 21 33 30.32 1027 2 3 N/A
9:55 am 09:55 Windy with Snow Likely 12 -11.1 8 -13.6 82 82 NNE 25 41 30.34 1027 2 3 N/A
10:15 am 10:15 Windy with Snow Likely 11 -11.5 6 -14.5 79 79 NNE 21 33 30.34 1027 2 3 N/A
10:35 am 10:35 Cloudy 11 -11.5 6 -14.6 78 78 NNE 17 28 30.34 1027 7 11 N/A
10:55 am 10:55 Cloudy with Light Snow 12 -11.3 7 -14.1 80 80 NE 16 26 30.35 1028 5 8 N/A
11:15 am 11:15 Cloudy 11 -11.5 6 -14.5 79 79 NNE 18 30 30.37 1028 10 16 N/A
11:35 am 11:35 Cloudy with Light Snow 11 -11.6 5 -14.8 77 77 NNE 15 24 30.37 1029 4 6 N/A
11:55 am 11:55 Cloudy with Light Snow 11 -11.5 6 -14.6 78 78 NNE 15 24 30.37 1028 4 6 N/A
12:15 pm 12:15 Cloudy with Light Snow 11 -11.5 6 -14.7 77 77 NNE 16 26 30.35 1028 4 6 N/A
12:35 pm 12:35 Cloudy with Light Snow 12 -11.3 6 -14.6 77 77 NNE 13 20 30.35 1028 7 11 N/A
12:55 pm 12:55 Cloudy with Light Snow 12 -11.2 6 -14.6 76 76 NNE 13 20 30.35 1028 10 16 N/A
1:15 pm 13:15 Cloudy with Light Snow 12 -11.1 6 -14.5 76 76 NNE 10 17 30.34 1027 10 16 N/A
1:35 pm 13:35 Cloudy 12 -11 6 -14.3 77 77 NNE 12 19 30.33 1027 10 16 N/A
1:55 pm 13:55 Cloudy 12 -11 6 -14.5 76 76 N 10 17 30.34 1027 10 16 N/A
2:15 pm 14:15 Cloudy 12 -11.1 6 -14.6 76 76 N 9 15 30.34 1027 10 16 N/A
2:35 pm 14:35 Cloudy with Light Snow 12 -11.2 5 -15.2 73 73 NNE 10 17 30.32 1027 10 16 N/A
2:55 pm 14:55 Cloudy with Light Snow 12 -11.2 4 -15.4 71 71 NNE 12 19 30.31 1026 7 11 N/A
3:15 pm 15:15 Partly Cloudy 12 -11.3 4 -15.3 73 73 NNE 9 15 30.31 1026 10 16 N/A
3:35 pm 15:35 Mostly Cloudy 11 -11.6 4 -15.3 74 74 NE 6 9 30.31 1026 10 16 N/A
3:55 pm 15:55 Cloudy 11 -11.5 5 -15.2 74 74 NE 6 9 30.31 1026 10 16 N/A
4:15 pm 16:15 Cloudy 11 -11.4 4 -15.3 73 73 NE 6 9 30.30 1026 10 16 N/A
4:35 pm 16:35 Cloudy 11 -11.5 4 -15.3 74 74 NE 7 11 30.30 1026 10 16 N/A
4:55 pm 16:55 Cloudy 11 -11.6 5 -15.2 75 75 E 3 6 30.30 1026 10 16 N/A
5:15 pm 17:15 Cloudy 11 -11.7 4 -15.5 74 74 E 3 6 30.32 1027 10 16 N/A
5:35 pm 17:35 Cloudy 11 -11.7 4 -15.6 73 73 E 3 6 30.31 1026 10 16 N/A
5:55 pm 17:55 Cloudy 11 -11.8 4 -15.5 74 74 E 5 7 30.31 1027 10 16 N/A
6:15 pm 18:15 Cloudy 10 -12 4 -15.7 74 74 E 6 9 30.31 1026 10 16 N/A
6:35 pm 18:35 Cloudy 10 -12 4 -15.5 75 75 E 5 7 30.32 1027 10 16 N/A
6:55 pm 18:55 Cloudy 10 -12.1 4 -15.6 75 75 E 6 9 30.31 1026 10 16 N/A
7:15 pm 19:15 Cloudy 10 -12.2 4 -15.5 77 77 E 6 9 30.31 1026 10 16 N/A
7:35 pm 19:35 Cloudy 10 -12.3 4 -15.6 77 77 E 6 9 30.31 1026 10 16 N/A
7:55 pm 19:55 Cloudy 10 -12.5 4 -15.7 77 77 ESE 5 7 30.31 1026 10 16 N/A
8:15 pm 20:15 Cloudy 10 -12.5 4 -15.7 77 77 E 7 11 30.31 1026 10 16 N/A
8:35 pm 20:35 Cloudy 9 -12.6 4 -15.8 77 77 E 7 11 30.31 1026 10 16 N/A
8:55 pm 20:55 Cloudy with Light Snow 9 -12.9 4 -15.8 79 79 ESE 10 17 30.30 1026 7 11 N/A
9:15 pm 21:15 Cloudy with Light Snow 8 -13.2 3 -15.9 80 80 ESE 9 15 30.30 1026 3 5 N/A
9:35 pm 21:35 Cloudy with Light Snow 8 -13.5 3 -16 82 82 E 12 19 30.30 1026 3 5 N/A
9:55 pm 21:55 Cloudy with Light Snow 8 -13.6 3 -16 82 82 E 12 19 30.30 1026 3 5 N/A
10:15 pm 22:15 Cloudy with Light Snow 7 -13.7 3 -16 83 83 ESE 13 20 30.29 1026 4 6 N/A
10:35 pm 22:35 Cloudy with Light Snow 7 -13.8 3 -16 84 84 ESE 14 22 30.28 1026 3 5 N/A
10:55 pm 22:55 Cloudy with Snow 7 -14 3 -16 85 85 ESE 12 19 30.29 1026 1 2 N/A
11:15 pm 23:15 Cloudy with Light Snow 7 -14 3 -16 85 85 ESE 13 20 30.29 1026 2 2 N/A
11:35 pm 23:35 Cloudy with Light Snow 7 -14 3 -16 85 85 SE 12 19 30.31 1026 2 3 N/A
11:55 pm 23:55 Cloudy with Light Snow 6 -14.2 3 -16.2 85 85 ESE 10 17 30.30 1026 3 5 N/A

Powered by AerisWeather